Location: Newark
(40.3500°N, 15.2333°E)
Time: 02:34:55
(UTC+00:00)

Vanguard 1 - Pass Details

Date: 24 January 2020
Orbit: 650 x 3833 km, 34.2° (Epoch: 25 February)

Event Time Altitude Azimuth Distance (km) Brightness Sun altitude
Rises 19:31:42 0° 267° (W) 3,186 13.6 -38.8°
Reaches altitude 10° 19:33:51 10° 259° (W) 2,426 12.7 -39.2°
Enters shadow 19:36:11 25° 241° (WSW) 1,778 11.7 -39.7°
Maximum altitude 19:39:03 40° 190° (S) 1,566 - -40.2°
Drops below altitude 10° 19:47:30 10° 126° (SE) 3,940 - -41.8°
Sets 19:52:01 0° 120° (ESE) 5,474 - -42.7°
